{"data":{"norad_id":55634,"epoch":"2026-09-20T22:00:03.000096Z","epoch_age_seconds":67072,"freshness":"FRESH","line1":"1 55634U 23021G   26263.91670139  .00070307  00000+0  49332-2 0  9995","line2":"2 55634  70.0038  72.1816 0003589 321.0574   0.8845 15.04764271  5765","mean_motion":15.04764271,"eccentricity":0.0003589,"inclination_deg":70.0038,"raan_deg":72.1816,"arg_perigee_deg":321.0574,"mean_anomaly_deg":0.8845,"bstar":0.0049332,"rev_number":576,"period_min":95.696052049604,"perigee_km":549.7420640257,"apogee_km":554.71668100789,"semimajor_km":6930.3663725168,"source":"CELESTRAK","updated_at":"2026-09-21T09:00:33.280533Z"}}